User: anonymous   Login
Location: Haram ta Haram Freeway
(35.0583°N, 51.4202°E)
Time: 15:22:19
(UTC+04:30)
Language:

JUGNU - Orbit

View from above orbital plane
View from above orbital plane
View from above satellite
View from above satellite

Ground track
Ground track

The orbit data is extracted from the following two-line orbital elements,

1 37839U 11058B   20184.69956330  .00000304  00000-0  20182-4 0  9995
2 37839  19.9596 190.3063 0018855 195.7317 321.8382 14.12682916451055
Epoch (UTC): 02 July 2020 16:47:22
Eccentricity: 0.0018855
inclination: 19.9596°
perigee height: 836 km
apogee height: 864 km
right ascension of ascending node: 190.3063°
argument of perigee: 195.7317°
revolutions per day: 14.12682916
mean anomaly at epoch: 321.8382°
orbit number at epoch: 45105

The dashed part of the orbit path shows where the satellite is in the earth's shadow,  

DLR